Townsville, Queensland

4:36 PM AEST on August 25, 2016 (GMT +1000)
Townsville

Weather History for 94294 - January, 2014

Change the Weather History Date:

Wednesday, January 1, 2014

  Actual Average Record
Temperature  
Mean Temperature 84 °F -  
Max Temperature 88 °F 89 °F - ()
Min Temperature 80 °F 76 °F - ()
Cooling Degree Days 19    
Growing Degree Days 34 (Base 50)    
Moisture  
Dew Point 73 °F    
Average Humidity 67    
Maximum Humidity 79    
Minimum Humidity 47    
Precipitation  
Precipitation 0.00 in 0.32 in - ()
Sea Level Pressure  
Sea Level Pressure 29.77 in    
Wind  
Wind Speed 11 mph ()    
Max Wind Speed 17 mph    
Max Gust Speed -    
Visibility 6.7 miles    
Events      
T = Trace of Precipitation, MM = Missing Value Source: Averaged Metar Reports

Daily Weather History Graph

Daily Weather History Graph

Search for Another Location

Airport or City:

Trip Planner

Search our weather history database for the weather conditions in past years. The results will help you decide how hot, cold, wet, or windy it might be!

Date:

Astronomy

Jan. 01, 2014 Rise Set
Actual Time 5:38 AM AEST 6:54 PM AEST
Civil Twilight 5:13 AM AEST 7:18 PM AEST
Nautical Twilight 4:44 AM AEST 7:47 PM AEST
Astronomical Twilight 4:15 AM AEST 8:17 PM AEST
Moon 5:07 AM AEST (1/1) 6:34 PM AEST (1/1)
Length of Visible Light 14h 04m
Length of Day
13h 16m
Waning Crescent, 0% of the Moon is Illuminated
Jan 1
Waning Crescent
Jan 1
New
Jan 8
First Quarter
Jan 16
Full
Jan 24
Last Quarter

Hourly Weather History & Observations

Time (AEST) Temp. Heat Index Dew Point Humidity Pressure Visibility Wind Dir Wind Speed Gust Speed Precip Events Conditions
12:00 AM 82 °F - 74 °F 72% 29.76 in - North 11.5 mph - -  
12:00 AM 82.4 °F 89.5 °F 75.2 °F 79% 29.74 in 6.2 mi North 11.5 mph - N/A   Scattered Clouds
12:30 AM 82.4 °F 88.2 °F 73.4 °F 74% 29.74 in 6.2 mi North 9.2 mph - N/A   Scattered Clouds
1:00 AM 81 °F - 74 °F 73% 29.75 in - North 6.9 mph - -  
1:00 AM 80.6 °F 85.4 °F 73.4 °F 79% 29.74 in 6.2 mi North 6.9 mph - N/A   Scattered Clouds
1:30 AM 80.6 °F 85.4 °F 73.4 °F 79% 29.74 in 6.2 mi North 8.1 mph - N/A   Scattered Clouds
2:00 AM 82.4 °F 88.2 °F 73.4 °F 74% 29.71 in 6.2 mi North 8.1 mph - N/A   Mostly Cloudy
2:30 AM 80.6 °F 85.4 °F 73.4 °F 79% 29.71 in 6.2 mi North 6.9 mph - N/A   Mostly Cloudy
3:00 AM 82 °F - 73 °F 68% 29.72 in - North 10.4 mph - -  
3:00 AM 82.4 °F 88.2 °F 73.4 °F 74% 29.71 in 6.2 mi North 10.4 mph - N/A   Scattered Clouds
3:30 AM 80.6 °F 85.4 °F 73.4 °F 79% 29.71 in 6.2 mi North 8.1 mph - N/A   Scattered Clouds
4:00 AM 81 °F - 73 °F 71% 29.73 in - North 6.9 mph - -  
4:00 AM 80.6 °F 85.4 °F 73.4 °F 79% 29.71 in 6.2 mi North 6.9 mph - N/A   Mostly Cloudy
4:30 AM 80.6 °F 85.4 °F 73.4 °F 79% 29.71 in 6.2 mi North 6.9 mph - N/A   Scattered Clouds
5:00 AM 80.6 °F 85.4 °F 73.4 °F 79% 29.71 in 6.2 mi North 8.1 mph - N/A   Scattered Clouds
5:30 AM 80.6 °F 84.6 °F 71.6 °F 74% 29.74 in 6.2 mi North 8.1 mph - N/A   Scattered Clouds
6:00 AM 81 °F - 73 °F 71% 29.76 in 22 mi North 6.9 mph - -   Haze
6:00 AM 80.6 °F 85.4 °F 73.4 °F 79% 29.74 in 6.2 mi North 6.9 mph - N/A   Scattered Clouds
6:30 AM 82.4 °F 88.2 °F 73.4 °F 74% 29.77 in 6.2 mi North 9.2 mph - N/A   Scattered Clouds
7:00 AM 83 °F - 74 °F 66% 29.80 in - North 9.2 mph - -  
7:00 AM 82.4 °F 88.2 °F 73.4 °F 74% 29.77 in 6.2 mi North 9.2 mph - N/A   Scattered Clouds
7:30 AM 84.2 °F 90.9 °F 73.4 °F 70% 29.80 in - North 10.4 mph - N/A   Clear
8:00 AM 84.2 °F 90.9 °F 73.4 °F 70% 29.80 in 6.2 mi North 10.4 mph - N/A   Mostly Cloudy
8:30 AM 84.2 °F 90.9 °F 73.4 °F 70% 29.80 in 6.2 mi North 10.4 mph - N/A   Scattered Clouds
9:00 AM 87 °F - 74 °F 57% 29.81 in 22 mi NNE 15.0 mph - -   Haze
9:00 AM 87.8 °F 95.6 °F 73.4 °F 62% 29.80 in 6.2 mi NNE 15.0 mph - N/A   Scattered Clouds
9:30 AM 86.0 °F 93.4 °F 73.4 °F 66% 29.80 in 6.2 mi North 13.8 mph - N/A   Scattered Clouds
10:00 AM 87 °F - 72 °F 53% 29.83 in - NNE 12.7 mph - -  
10:00 AM 87.8 °F 93.8 °F 71.6 °F 58% 29.80 in 6.2 mi NNE 12.7 mph - N/A   Scattered Clouds
10:30 AM 87.8 °F 95.6 °F 73.4 °F 62% 29.80 in 6.2 mi NNE 15.0 mph - N/A   Scattered Clouds
11:00 AM 87.8 °F 92.6 °F 69.8 °F 55% 29.80 in 6.2 mi North 17.3 mph - N/A   Scattered Clouds
11:30 AM 87.8 °F 93.8 °F 71.6 °F 58% 29.80 in 6.2 mi North 16.1 mph - N/A   Partly Cloudy
12:00 PM 87 °F - 71 °F 50% 29.80 in 25 mi North 16.1 mph - -   Partly Cloudy
12:00 PM 87.8 °F 93.8 °F 71.6 °F 58% 29.80 in 6.2 mi North 16.1 mph - N/A   Partly Cloudy
12:30 PM 86.0 °F 91.8 °F 71.6 °F 62% 29.80 in 6.2 mi North 17.3 mph - N/A   Scattered Clouds
1:00 PM 88 °F - 71 °F 47% 29.80 in - North 17.3 mph - -  
1:00 PM 87.8 °F 93.8 °F 71.6 °F 58% 29.77 in 6.2 mi North 17.3 mph - N/A   Scattered Clouds
1:30 PM 87.8 °F 93.8 °F 71.6 °F 58% 29.77 in 6.2 mi North 17.3 mph - N/A   Scattered Clouds
2:00 PM 87.8 °F 93.8 °F 71.6 °F 58% 29.77 in 6.2 mi North 16.1 mph - N/A   Scattered Clouds
2:30 PM 87.8 °F 93.8 °F 71.6 °F 58% 29.74 in 6.2 mi NNE 17.3 mph - N/A   Scattered Clouds
3:00 PM 87 °F - 72 °F 53% 29.75 in 25 mi NNE 17.3 mph - -   Partly Cloudy
3:00 PM 87.8 °F 93.8 °F 71.6 °F 58% 29.74 in 6.2 mi NNE 17.3 mph - N/A   Scattered Clouds
3:30 PM 86.0 °F 91.8 °F 71.6 °F 62% 29.74 in 6.2 mi North 17.3 mph - N/A   Scattered Clouds
4:00 PM 88 °F - 72 °F 50% 29.75 in - North 17.3 mph - -  
4:00 PM 87.8 °F 93.8 °F 71.6 °F 58% 29.74 in 6.2 mi North 17.3 mph - N/A   Scattered Clouds
4:30 PM 86.0 °F 93.4 °F 73.4 °F 66% 29.74 in 6.2 mi North 13.8 mph - N/A   Scattered Clouds
5:00 PM 86.0 °F 91.8 °F 71.6 °F 62% 29.74 in 6.2 mi North 15.0 mph - N/A   Scattered Clouds
5:30 PM 84.2 °F 89.6 °F 71.6 °F 66% 29.74 in 6.2 mi NE 17.3 mph - N/A   Partly Cloudy
6:00 PM 85 °F - 73 °F 59% 29.77 in 19 mi NE 16.1 mph - -   Partly Cloudy
6:00 PM 84.2 °F 90.9 °F 73.4 °F 70% 29.77 in 6.2 mi NE 16.1 mph - N/A   Scattered Clouds
6:30 PM 84.2 °F 90.9 °F 73.4 °F 70% 29.77 in 6.2 mi NE 16.1 mph - N/A   Partly Cloudy
7:00 PM 83 °F - 73 °F 64% 29.81 in - NE 12.7 mph - -  
7:00 PM 82.4 °F 88.2 °F 73.4 °F 74% 29.77 in 6.2 mi NE 12.7 mph - N/A   Scattered Clouds
7:30 PM 82.4 °F 87.2 °F 71.6 °F 70% 29.80 in 6.2 mi NE 15.0 mph - N/A   Scattered Clouds
8:00 PM 82.4 °F 88.2 °F 73.4 °F 74% 29.80 in 6.2 mi NE 13.8 mph - N/A   Scattered Clouds
8:30 PM 82.4 °F 87.2 °F 71.6 °F 70% 29.80 in 6.2 mi NE 15.0 mph - N/A   Partly Cloudy
9:00 PM 82 °F - 72 °F 66% 29.83 in 19 mi NE 15.0 mph - -   Partly Cloudy
9:00 PM 82.4 °F 87.2 °F 71.6 °F 70% 29.83 in 6.2 mi NE 15.0 mph - N/A   Partly Cloudy
9:30 PM 82.4 °F 87.2 °F 71.6 °F 70% 29.83 in 6.2 mi NE 15.0 mph - N/A   Partly Cloudy
10:00 PM 82 °F - 71 °F 63% 29.86 in - NE 15.0 mph - -  
10:00 PM 82.4 °F 87.2 °F 71.6 °F 70% 29.83 in 6.2 mi NE 15.0 mph - N/A   Partly Cloudy
10:30 PM 82.4 °F 87.2 °F 71.6 °F 70% 29.86 in 6.2 mi NE 15.0 mph - N/A   Partly Cloudy
11:00 PM 82.4 °F 87.2 °F 71.6 °F 70% 29.86 in 6.2 mi NE 15.0 mph - N/A   Unknown
11:30 PM 80.6 °F 84.6 °F 71.6 °F 74% 29.86 in 6.2 mi NE 12.7 mph - N/A   Unknown